Regional Weather Roundup
Issued by NWS Cleveland, OH

Home | Current Version | Previous Version | Graphics & Text | Print | Product List | Glossary On
Versions: 1 2 3 4 5 6 7 8 9 10 11 12 13 14 15 16 17 18 19 20 21 22 23 24 25 26 27 28 29 30 31 32 33 34 35 36 37 38 39 40 41 42 43 44 45 46 47 48 49 50
000
ASUS41 KCLE 020600
RWRCLE
OHIO REGIONAL WEATHER ROUNDUP
NATIONAL WEATHER SERVICE WILMINGTON, OH
200 AM EDT MON MAY 02 2016

NOTE: "FAIR" INDICATES FEW OR NO CLOUDS BELOW 12,000 FEET WITH NO
SIGNIFICANT WEATHER AND/OR OBSTRUCTIONS TO VISIBILITY.

OHZ001>008-015>018-024>027-034-035-043-044-020700-
   NORTHWEST OHIO

CITY           SKY/WX    TMP DP  RH WIND       PRES   REMARKS
DEFIANCE       LGT RAIN  49  47  93 E9        29.94F FOG
FINDLAY        LGT RAIN  51  46  83 N14       29.90S
TOLEDO EXPRESS LGT RAIN  48  47  96 E7        29.95F FOG
TOLEDO EXEC    RAIN      49  47  93 NE6       29.96S FOG
LIMA           CLOUDY    51  50  96 N9        29.93R
$$

OHZ009>014-019>023-028>033-038-089-020700-
   NORTHEAST OHIO

CITY           SKY/WX    TMP DP  RH WIND       PRES   REMARKS
CLE-HOPKINS    TSTM      49  47  93 N12       29.98R FOG
CLE-LAKEFRONT  LGT RAIN  49  46  90 NE7       29.99R FOG
CUY CO. ARPT   NOT AVBL
LORAIN-ELYRIA  RAIN      48  45  89 NE17      29.91F FOG
ASHTABULA      CLOUDY    46  45  96 N6        29.94F
AKRON-CANTON   LGT RAIN  52  50  93 NE5       29.92R
WOOSTER        NOT AVBL
MANSFIELD      CLOUDY    50  50 100 NE13      29.87F
YOUNGSTOWN     LGT RAIN  49  47  93 NE6       29.92R FOG
$$

OHZ042-051>053-060>062-070>072-077>081-020700-
  SOUTHWEST OHIO

CITY           SKY/WX    TMP DP  RH WIND       PRES   REMARKS
CINC-COVINGTON CLOUDY    63  61  93 W9G18     29.89R
CINC-LUNKEN    MOCLDY    62  61  96 CALM      29.88R
HAMILTON       TSTM      62  61  96 W8        29.90R
DAYTON         NOT AVBL
WRIGHT-PAT AFB NOT AVBL
DAYTON GENERAL CLOUDY    60  57  89 SW5       29.89R
WILMINGTON     CLOUDY    61  59  93 NW13      29.88R THUNDER
$$

OHZ036-037-039>041-045>050-054>059-063>069-073>076-082>088-020700-
  CENTRAL AND SOUTHEAST OHIO

CITY           SKY/WX    TMP DP  RH WIND       PRES   REMARKS
COLUMBUS       TSTM      59  59 100 N3        29.87R
OSU AIRPORT    TSTM      58  58 100 CALM      29.89R FOG
BOLTON FIELD   NOT AVBL
RICKENBACK AFB NOT AVBL
NEWARK         MOCLDY    59  56  89 VRB5      29.87F
MARION         CLOUDY    54  50  86 NW9       29.90R
LANCASTER      FAIR      62  59  90 SE3       29.85F
ZANESVILLE     FAIR      63  57  81 CALM      29.86F
NEW PHILLY     CLOUDY    57  55  93 SE5       29.88F
$$




USA.gov is the U.S. government's official web portal to all federal, state and local government web resources and services.